Location: ???????????
(55.5758°N, 38.4970°E)
Time: 19:10:30
(UTC+00:00)

Cosmos 1802 Rocket - Pass Details

Date: 15 November 2025
Orbit: 953 x 1011 km, 82.9° (Epoch: 14 December)

Event Time Altitude Azimuth Distance (km) Brightness Sun altitude
Rises 01:11:07 0° 348° (NNW) 3,739 7.1 -31.9°
Reaches altitude 10° 01:13:41 10° 349° (N) 2,779 6.4 -31.6°
Enters shadow 01:17:49 43° 353° (N) 1,365 4.7 -31.0°
Exits shadow 01:21:25 59° 161° (SSE) 1,131 4.2 -30.5°
Drops below altitude 10° 01:26:21 10° 168° (SSE) 2,720 6.3 -29.8°
Sets 01:28:50 0° 169° (S) 3,655 7.0 -29.5°
